EW8461 Weather Reports


time (UTC)temp
F
wind
direction
speed
knots
gust
knots
rain 1hr
in
rain 24hr
in
rain mn
in
humidity
%
barometer
mb
20260506134515 55 360 0.0 0.0 0.00 0.00 0.00 89 1020.1
20260506133018 55 360 0.0 0.0 0.00 0.00 0.00 90 1020.0
20260506131516 55 360 0.0 0.0 0.00 0.00 0.00 90 1020.0
20260506130018 55 360 0.0 0.0 0.00 0.00 0.00 90 1020.0
20260506124517 55 360 0.0 0.0 0.00 0.00 0.00 91 1020.0
20260506123017 56 360 0.0 0.0 0.00 0.00 0.00 91 1019.9
20260506121515 55 360 0.0 0.0 0.00 0.00 0.00 91 1019.8
20260506120014 55 360 0.0 0.0 0.00 0.00 0.00 91 1019.6
20260506114521 55 360 0.0 0.0 0.00 0.00 0.00 91 1019.5
20260506113020 55 360 0.0 0.0 0.00 0.00 0.00 91 1019.4
20260506111519 55 360 0.0 0.0 0.00 0.00 0.00 91 1019.1
20260506110018 56 360 0.0 0.0 0.00 0.00 0.00 91 1018.7
20260506104518 56 360 0.0 0.0 0.00 0.00 0.00 91 1018.6
20260506103020 56 360 0.0 0.0 0.00 0.00 0.00 90 1018.4
20260506101535 56 360 0.0 0.0 0.00 0.00 0.00 90 1018.2
20260506100019 56 360 0.0 0.0 0.00 0.00 0.00 90 1018.2
20260506094520 56 360 0.0 0.0 0.00 0.00 0.00 90 1018.1
20260506093016 56 360 0.0 0.0 0.00 0.00 0.00 89 1018.0
20260506091522 56 360 0.0 0.0 0.00 0.00 0.00 89 1018.0
20260506090022 56 360 0.0 0.0 0.00 0.00 0.00 89 1018.0
20260506084528 56 360 0.0 0.0 0.00 0.00 0.00 89 1017.9
20260506083023 56 360 0.0 0.0 0.00 0.00 0.00 89 1017.9
20260506081520 56 360 0.0 0.0 0.00 0.00 0.00 89 1017.9
20260506073024 57 360 0.0 0.0 0.00 0.00 0.00 89 1017.8
20260506071517 57 360 0.0 0.0 0.00 0.00 0.00 89 1017.7
20260506061512 57 360 0.0 0.0 0.00 0.00 0.00 88 1017.5
20260506044524 56 360 0.0 0.0 0.00 0.00 0.00 88 1016.8
20260506043025 56 360 0.0 0.0 0.00 0.00 0.00 87 1016.6
20260506041513 57 360 0.0 0.0 0.00 0.00 0.00 86 1016.5
20260506040014 57 360 0.0 0.9 0.00 0.00 0.00 85 1016.5
20260506034518 58 360 0.0 0.0 0.00 0.00 0.00 82 1016.3
20260506033027 60 360 0.0 0.0 0.00 0.00 0.00 81 1016.0
20260506031528 61 360 0.0 0.0 0.00 0.00 0.00 78 1016.0
20260506030011 61 360 0.0 0.0 0.00 0.00 0.00 78 1015.8
20260506024516 62 360 0.0 0.9 0.00 0.00 0.00 77 1015.8
20260506023018 62 360 0.0 0.0 0.00 0.00 0.00 76 1015.8
20260506021524 62 360 0.0 0.0 0.00 0.00 0.00 76 1015.7
20260506020026 62 360 0.0 0.9 0.00 0.00 0.00 75 1015.8
20260506014517 62 360 0.0 1.7 0.00 0.00 0.00 75 1015.7
20260506013024 63 360 0.0 0.9 0.00 0.00 0.00 73 1015.7
20260506011521 63 360 0.0 0.9 0.00 0.00 0.00 74 1015.7
20260506010027 63 360 0.0 0.9 0.00 0.00 0.00 75 1015.7
20260506004537 63 360 0.0 1.7 0.00 0.00 0.00 74 1015.7
20260506003012 63 360 0.0 0.9 0.00 0.00 0.00 73 1015.8
20260506001516 63 360 0.0 1.7 0.00 0.00 0.00 74 1015.7
20260506000023 63 360 0.0 2.6 0.00 0.00 0.00 73 1015.9
20260505234524 63 360 0.0 1.7 0.00 0.00 0.00 74 1016.0
20260505233027 62 360 0.0 1.7 0.00 0.00 0.00 75 1016.0
20260505231514 62 360 0.0 1.7 0.00 0.00 0.00 75 1016.0
20260505230020 62 360 0.0 1.7 0.00 0.00 0.00 76 1016.2
20260505224535 62 360 0.0 1.7 0.00 0.00 0.00 73 1016.3
20260505223039 62 360 0.0 1.7 0.00 0.00 0.00 74 1016.3
20260505220027 61 360 0.0 0.9 0.00 0.00 0.00 76 1016.4
20260505214536 61 360 0.0 1.7 0.00 0.00 0.00 74 1016.4
20260505213043 61 360 0.0 1.7 0.00 0.00 0.00 76 1016.5
20260505211526 61 360 0.0 3.5 0.00 0.00 0.00 75 1016.5
20260505210031 63 360 0.0 1.7 0.00 0.00 0.00 75 1016.5
20260505204524 63 360 0.9 2.6 0.00 0.00 0.00 73 1016.5
20260505203022 63 360 0.9 1.7 0.00 0.00 0.00 75 1016.6
20260505201542 62 360 0.0 1.7 0.00 0.00 0.00 75 1016.8
20260505200030 61 360 0.0 1.7 0.00 0.00 0.00 80 1016.9
20260505194527 60 360 0.0 1.7 0.00 0.00 0.00 80 1017.0
20260505193038 59 360 0.0 1.7 0.00 0.00 0.00 81 1017.0
20260505191523 59 360 0.9 1.7 0.00 0.00 0.00 81 1017.0
20260505190032 59 360 0.9 1.7 0.00 0.00 0.00 81 1017.1
20260505184527 57 5 0.0 1.7 0.00 0.00 0.00 82 1017.1
20260505183027 57 360 0.9 1.7 0.00 0.00 0.00 86 1017.1
20260505181524 56 360 0.0 1.7 0.00 0.00 0.00 88 1017.2
20260505180003 56 360 0.0 1.7 0.00 0.00 0.00 88 1017.1
20260505174508 56 360 0.0 1.7 0.00 0.00 0.00 89 1017.1
20260505173014 55 360 0.0 1.7 0.00 0.00 0.00 88 1017.0
20260505171528 55 360 0.0 1.7 0.00 0.00 0.00 89 1016.9
20260505170021 55 360 0.0 1.7 0.00 0.00 0.00 90 1016.8
20260505164516 54 360 0.0 0.9 0.00 0.00 0.00 91 1016.6
20260505163016 54 360 0.0 0.9 0.00 0.00 0.00 92 1016.5
20260505161516 54 360 0.0 0.9 0.00 0.00 0.00 92 1016.5
20260505153008 53 360 0.0 0.9 0.00 0.00 0.00 92 1016.4
20260505151513 53 360 0.0 0.9 0.00 0.00 0.00 92 1016.4